Theta_e
267 267 267 266 267 268 266 266 267 267 267 267 267 267 267 269 269 269 269 270 270 270 271 271 272 272 274 274 275 278 279 279 280 281 281 282 283 283 284 285 286 288
266 267 267 267 267 267 266 267 266 267 266 267 267 267 268 268 268 269 268 269 269 269 270 270 271 271 272 273 274 276 277 277 278 280 279 280 281 281 282 283 284 286
266 266 266 266 265 266 266 266 266 266 266 267 267 267 268 268 268 268 268 269 268 268 269 269 270 270 271 272 273 274 275 276 276 278 278 279 280 280 281 282 282 282
265 265 265 266 265 265 266 266 266 266 266 266 266 267 267 268 267 267 268 268 268 268 268 269 269 269 270 270 271 273 274 275 276 277 277 278 279 279 279 280 281 280
265 265 265 265 265 266 265 265 265 265 265 266 266 266 267 266 266 267 267 267 267 267 268 268 268 268 269 269 270 271 273 273 275 276 276 276 278 278 279 279 279 279
264 265 265 265 265 265 264 264 264 265 264 265 265 266 266 266 266 266 266 266 267 267 267 267 267 268 268 269 269 270 271 272 273 275 275 275 276 277 277 278 277 277
264 264 264 265 264 264 264 264 264 265 264 265 265 265 266 265 266 266 266 266 266 267 266 266 266 267 268 268 268 268 270 271 273 274 274 274 275 275 276 276 276 276
263 263 264 264 263 264 263 263 263 263 264 264 264 264 265 264 265 265 265 266 266 266 266 266 266 266 267 267 267 268 269 271 272 273 273 273 274 273 274 275 275 275
263 263 263 263 262 263 262 262 263 263 264 263 263 264 264 264 264 264 265 265 265 265 265 265 266 266 266 267 267 267 269 271 272 273 273 272 272 273 273 274 274 274
262 262 262 262 261 262 261 262 262 262 263 263 263 263 263 264 264 264 264 264 264 264 264 265 265 265 266 266 266 267 269 271 272 272 273 273 272 272 273 273 273 273
261 261 261 261 261 261 261 261 261 261 262 262 262 262 262 263 263 264 263 264 263 263 264 264 264 265 265 265 266 268 270 271 272 272 272 272 272 272 273 272 272 272
260 260 260 260 260 260 260 260 260 261 261 261 262 261 262 262 262 262 263 263 263 263 263 263 264 264 264 265 266 268 270 271 272 272 272 272 272 272 272 273 272 272
259 259 260 260 260 260 260 259 260 260 260 260 261 261 261 261 261 261 262 262 262 263 263 263 263 264 264 264 266 268 270 271 271 271 272 272 272 272 273 273 272 272
259 259 259 259 259 259 259 259 259 259 259 260 260 260 260 260 260 261 261 261 262 262 262 263 263 263 263 264 267 269 270 271 271 271 271 271 272 272 273 272 272 271
259 259 259 259 259 258 258 258 258 258 259 259 259 259 260 260 260 261 260 260 261 261 261 262 262 262 263 265 268 269 270 270 270 271 271 271 271 271 272 271 271 271
259 259 258 258 258 258 257 258 258 258 258 258 258 259 259 259 260 260 260 260 260 260 260 261 261 261 266 270 271 270 270 270 270 270 271 270 270 270 270 270 270 270
258 258 258 257 258 257 257 257 257 257 257 257 258 258 258 258 259 258 259 259 259 259 259 260 260 261 267 270 271 273 271 270 270 270 270 270 269 269 268 269 269 270
257 257 257 257 257 256 257 257 257 257 257 257 257 257 257 258 257 258 258 258 258 258 258 259 259 263 268 269 271 272 272 270 270 269 269 269 268 268 268 268 268 269
257 257 256 256 256 256 256 256 256 256 256 256 256 257 257 256 257 257 257 258 257 257 257 258 258 263 267 269 270 271 272 272 270 269 268 267 267 267 267 268 268 269
256 256 256 255 256 255 256 255 255 255 256 256 256 256 256 256 256 256 257 257 257 257 257 257 258 262 267 269 270 271 272 272 269 268 267 267 267 267 267 267 268 268
256 255 255 255 255 255 255 255 255 255 255 255 256 255 255 255 255 255 256 256 256 256 256 256 257 264 267 268 269 270 271 271 267 267 266 266 267 267 267 267 267 267
255 254 254 254 254 254 254 254 254 255 254 255 255 255 255 255 255 256 255 255 256 256 256 256 257 263 266 267 268 269 271 267 266 266 266 266 266 266 266 267 267 267
254 254 253 253 253 253 253 253 254 254 254 254 254 254 254 254 254 255 255 255 255 255 255 256 256 260 265 266 268 269 268 266 265 265 265 265 265 266 266 266 267 267
254 253 253 253 253 252 252 253 253 253 253 254 253 253 253 254 254 254 254 255 255 255 255 256 256 259 264 266 267 268 268 265 265 265 264 264 264 265 266 266 267 269
253 253 253 252 252 252 252 252 252 252 253 253 253 253 253 253 253 253 254 254 255 255 256 256 256 257 262 265 267 268 267 265 265 264 264 264 264 265 266 267 267 268
253 252 252 252 252 252 252 252 252 252 252 252 252 252 252 252 253 253 253 253 255 255 255 256 256 256 258 264 266 267 268 266 265 264 263 264 265 265 266 266 267 267
Wind_Speed
9 9 8 8 8 8 9 9 9 9 8 9 9 9 9 9 12 11 12 11 13 11 12 13 13 13 12 11 10 9 9 11 10 10 11 10 9 11 11 13 13 10
10 10 9 8 7 8 8 8 9 8 9 8 9 9 8 10 11 10 11 11 12 11 12 12 12 12 12 11 12 10 10 10 10 9 10 12 10 10 10 12 11 10
10 10 10 10 9 10 10 8 8 8 8 8 9 9 9 9 11 10 10 11 11 11 12 11 11 12 12 11 11 10 10 12 11 11 10 10 10 10 10 10 10 11
10 10 10 9 10 10 9 8 9 8 8 8 9 9 9 9 10 11 11 12 10 10 10 11 12 11 11 12 11 8 10 9 10 11 10 9 9 10 10 9 10 10
10 9 9 8 9 9 9 9 10 9 10 9 9 9 9 11 10 10 11 11 11 11 10 11 11 11 11 10 11 9 10 9 9 10 10 10 9 10 9 9 10 11
8 8 9 8 10 9 9 9 10 10 11 10 11 9 9 10 9 11 11 11 11 11 11 10 11 10 10 10 10 9 10 9 10 10 10 10 10 10 9 10 10 10
9 9 10 8 10 9 9 9 9 10 9 9 10 9 10 10 10 11 11 11 11 11 11 11 11 11 10 10 9 9 9 9 10 11 10 9 9 10 10 10 10 11
8 8 8 8 10 9 10 9 10 9 10 10 10 9 10 11 11 10 10 11 11 11 11 11 11 11 10 10 10 11 10 8 9 11 11 10 10 10 10 9 10 11
7 8 8 8 9 8 10 10 10 10 10 10 10 9 9 9 10 11 11 11 11 11 11 10 11 11 10 10 10 10 10 11 10 11 11 11 11 11 11 10 10 10
7 7 8 8 9 8 10 10 10 9 10 10 10 9 10 10 10 10 10 11 10 11 11 11 11 11 10 10 10 10 11 11 11 11 10 10 11 11 10 10 11 11
8 7 8 9 9 8 9 10 9 9 9 10 10 10 10 10 10 10 10 10 10 11 11 11 11 11 11 11 10 9 11 11 11 10 10 11 10 10 11 10 10 10
7 7 8 8 8 9 10 9 9 9 9 9 9 10 11 10 10 10 10 11 10 11 11 11 11 11 11 11 10 11 11 11 10 10 10 10 10 10 10 9 9 10
7 7 7 7 7 8 8 8 9 9 9 9 9 9 10 10 10 11 10 10 11 10 11 11 11 11 11 10 10 12 12 12 12 11 11 10 10 10 10 9 9 8
6 6 6 6 6 7 7 8 8 8 9 9 9 9 9 10 11 11 11 10 10 10 11 10 11 10 10 9 11 12 12 12 12 11 11 11 11 10 10 9 9 8
6 5 5 6 7 7 8 8 8 8 8 8 8 8 8 9 9 10 11 11 10 10 11 10 9 9 8 10 13 13 13 13 12 12 12 12 11 11 10 10 9 8
6 6 6 6 7 7 8 8 8 8 8 8 8 8 9 9 9 9 10 10 11 11 10 9 9 8 12 21 19 14 14 12 12 12 12 11 11 11 11 10 10 9
5 5 6 6 6 7 7 8 8 8 8 8 8 8 9 9 9 10 9 10 10 11 11 10 9 9 20 21 21 22 15 13 13 12 12 11 11 11 11 12 10 10
5 6 6 6 7 7 7 8 8 8 8 8 8 9 8 8 9 9 9 9 9 10 10 10 10 15 22 22 22 22 20 14 12 11 10 10 10 11 10 11 12 11
6 6 6 6 7 7 7 7 8 8 8 8 9 9 9 9 9 9 9 9 9 10 10 10 10 17 21 22 22 22 22 18 11 11 10 10 11 11 11 11 11 11
5 6 6 7 7 7 7 7 8 8 8 8 8 8 8 9 9 9 9 9 9 10 10 10 11 16 21 22 21 22 22 19 11 11 10 11 11 11 11 11 12 12
5 5 6 7 7 7 7 7 8 8 8 7 7 8 8 9 9 9 9 9 10 10 9 10 10 19 21 22 21 22 22 17 10 10 10 10 10 10 11 12 12 11
5 5 6 6 7 7 7 8 8 8 8 8 7 8 7 8 8 8 9 10 10 10 10 10 11 19 21 21 22 21 22 12 10 10 10 10 10 11 11 11 11 11
5 5 6 6 6 7 7 7 8 8 8 7 8 8 8 8 8 8 9 9 11 10 10 10 10 16 21 22 22 22 17 11 11 10 10 10 10 11 11 11 11 11
4 5 6 6 6 6 7 7 7 6 7 7 8 9 8 8 9 9 9 9 10 11 10 11 11 15 21 22 22 22 19 12 11 11 11 10 11 11 11 11 12 18
4 4 5 6 6 7 6 7 8 7 7 7 7 7 8 8 8 8 9 9 9 10 14 13 11 13 20 21 22 21 17 12 11 10 11 11 11 11 11 11 11 12
4 4 5 5 7 6 7 7 7 7 7 7 7 7 7 8 8 8 9 9 9 9 9 10 11 11 14 23 22 22 22 14 10 10 11 12 12 12 12 11 11 11
Wind_Direction
15 13 13 11 8 7 358 357 354 356 352 351 352 346 343 342 346 350 351 353 355 353 352 352 350 349 347 348 340 352 359 358 358 358 350 354 357 359 0 357 356 353
13 14 11 11 7 4 1 358 354 356 350 348 349 340 339 345 344 342 348 351 352 355 353 354 352 349 346 351 340 349 355 357 356 356 351 356 356 356 354 356 353 349
10 9 9 9 4 357 358 357 356 355 351 345 346 344 344 346 341 342 346 346 343 347 355 353 351 349 350 349 341 350 353 351 353 353 351 354 353 357 351 352 353 353
8 9 5 5 2 356 357 353 355 355 350 351 352 345 348 344 340 342 344 346 344 343 344 349 356 350 351 350 345 350 349 350 345 346 348 349 353 354 351 351 350 351
3 4 3 4 359 356 359 356 355 354 351 347 345 346 347 346 341 344 346 344 345 341 344 344 346 345 349 351 346 345 348 347 345 350 348 348 349 353 348 349 349 348
3 2 1 1 359 356 359 356 354 353 347 349 349 342 345 344 342 345 345 343 343 342 341 342 343 344 343 347 346 346 346 343 342 346 350 348 347 349 346 346 345 346
359 358 0 358 1 356 2 352 353 351 345 347 341 343 347 341 345 343 344 341 340 342 343 340 343 342 344 344 344 340 342 340 340 346 346 346 346 344 347 345 345 341
355 357 358 356 1 353 0 352 351 351 342 345 342 342 346 339 343 344 341 340 341 341 339 339 339 340 341 343 342 338 339 345 344 345 344 342 344 342 345 343 342 337
355 357 356 357 2 356 357 351 348 344 343 344 341 340 341 339 340 340 339 340 340 339 339 338 338 337 339 339 337 333 338 342 343 342 342 340 341 340 340 339 340 338
355 352 355 357 0 356 352 348 345 342 340 341 338 341 338 337 341 337 338 339 338 337 339 338 337 335 335 336 331 328 337 338 338 339 337 335 334 333 334 338 336 334
355 356 353 356 357 350 347 344 343 342 339 340 338 339 337 337 338 340 337 339 339 336 335 336 334 331 331 331 327 329 336 335 334 335 333 331 328 327 329 331 331 331
353 350 349 351 351 349 346 343 339 339 337 337 337 335 334 336 336 336 338 334 335 331 333 329 329 327 328 325 325 333 334 331 331 329 328 326 325 324 323 323 325 324
349 345 345 342 347 342 337 337 337 336 336 334 336 333 331 335 335 334 333 334 328 330 331 328 326 325 324 322 328 333 331 331 330 328 325 324 319 319 318 316 317 317
340 335 336 334 338 333 334 333 331 332 331 330 331 332 331 334 332 331 330 330 326 331 328 327 324 320 320 322 328 330 330 329 329 326 324 320 317 316 316 315 315 316
329 329 330 335 337 334 334 331 331 329 330 329 327 327 330 328 325 329 327 327 328 330 326 325 322 321 319 326 327 327 329 328 326 325 321 319 317 316 314 314 312 312
326 328 328 339 331 336 331 329 329 327 324 325 326 326 326 322 324 328 326 326 329 326 328 326 319 312 315 322 327 327 329 328 324 321 320 318 317 316 315 314 311 311
327 328 334 331 333 333 326 329 327 324 323 322 323 326 325 324 328 325 325 328 326 325 323 320 314 308 319 325 326 330 332 328 324 321 319 319 316 316 315 314 313 312
327 330 330 331 332 325 328 324 321 321 323 322 324 324 325 328 322 317 322 321 322 320 318 314 312 312 321 323 326 330 330 328 323 321 320 319 316 314 312 311 312 313
329 327 327 327 324 325 321 320 322 323 319 323 325 322 325 320 319 323 318 316 317 316 314 312 309 312 319 322 326 328 328 328 325 324 321 315 313 312 310 310 312 313
322 324 324 319 323 325 321 320 320 318 317 321 319 321 319 318 318 317 316 318 315 314 312 310 307 308 317 322 325 327 327 329 329 325 317 311 310 310 311 312 311 310
319 321 319 319 319 322 320 316 317 316 320 321 322 318 319 317 319 319 315 315 315 314 310 305 300 310 319 323 325 327 327 333 329 321 314 307 307 308 307 306 306 306
317 312 314 315 318 318 319 317 316 318 319 320 319 314 311 310 309 309 311 312 311 309 307 306 302 313 320 322 326 328 330 333 326 319 314 312 310 307 305 305 304 303
309 311 309 311 315 314 313 312 318 319 318 319 318 313 313 311 310 313 310 310 308 307 307 304 305 314 320 322 325 327 330 329 325 317 314 311 308 307 305 301 300 299
300 302 301 306 306 305 308 310 311 309 310 316 314 310 311 310 311 309 306 304 305 305 305 308 307 310 317 321 323 325 329 327 322 320 314 314 310 305 303 300 299 300
287 291 295 296 301 302 306 308 311 311 311 308 301 304 303 303 303 301 302 303 300 303 306 307 304 307 314 318 320 324 327 325 324 320 317 314 310 308 305 304 305 306
275 282 290 295 298 301 301 300 305 306 302 306 307 304 301 303 300 298 298 298 304 307 306 307 307 304 304 314 320 323 326 328 324 321 319 313 312 310 311 310 308 306